TimeEST,TemperatureF,Dew PointF,Humidity,Sea Level PressureIn,VisibilityMPH,Wind Direction,Wind SpeedMPH,Gust SpeedMPH,PrecipitationIn,Events,Conditions,WindDirDegrees,DateUTC
12:51 AM,46.9,37.0,68,30.30,10.0,South,9.2,-,N/A,,Overcast,190,2011-12-15 05:51:00
1:51 AM,46.9,37.0,68,30.27,10.0,South,9.2,-,N/A,,Overcast,190,2011-12-15 06:51:00
2:51 AM,46.4,37.4,71,30.23,10.0,SSW,9.2,-,N/A,,Overcast,200,2011-12-15 07:51:00
3:51 AM,48.0,37.9,68,30.24,10.0,SSW,6.9,-,N/A,,Overcast,200,2011-12-15 08:51:00
4:51 AM,48.0,37.9,68,30.22,10.0,South,11.5,-,N/A,,Overcast,190,2011-12-15 09:51:00
5:51 AM,48.0,39.0,71,30.20,10.0,South,8.1,-,N/A,,Overcast,190,2011-12-15 10:51:00
6:51 AM,48.9,39.9,71,30.19,10.0,SSW,10.4,20.7,N/A,,Overcast,200,2011-12-15 11:51:00
7:51 AM,48.9,41.0,74,30.17,10.0,SSW,11.5,-,N/A,,Overcast,210,2011-12-15 12:51:00
8:51 AM,50.0,39.9,68,30.15,10.0,SSW,13.8,20.7,N/A,,Overcast,200,2011-12-15 13:51:00
9:51 AM,51.1,41.0,68,30.10,10.0,South,16.1,23.0,N/A,,Overcast,180,2011-12-15 14:51:00
10:51 AM,52.0,42.1,69,30.05,10.0,South,18.4,24.2,N/A,,Overcast,180,2011-12-15 15:51:00
11:51 AM,53.1,41.0,64,29.98,10.0,South,19.6,28.8,N/A,,Overcast,180,2011-12-15 16:51:00
12:51 PM,54.0,42.1,64,29.94,10.0,SSE,6.9,-,N/A,,Overcast,160,2011-12-15 17:51:00
1:51 PM,57.0,41.0,55,29.93,10.0,SW,10.4,17.3,N/A,,Overcast,220,2011-12-15 18:51:00
2:51 PM,57.9,42.1,56,29.90,10.0,WSW,11.5,-,N/A,,Mostly Cloudy,240,2011-12-15 19:51:00
3:51 PM,55.9,43.0,62,29.87,10.0,South,10.4,-,N/A,,Overcast,170,2011-12-15 20:51:00
4:51 PM,57.0,43.0,59,29.85,8.0,SSW,13.8,-,0.00,Rain,Light Rain,210,2011-12-15 21:51:00
5:51 PM,57.0,44.1,62,29.83,10.0,SW,10.4,19.6,0.00,,Mostly Cloudy,220,2011-12-15 22:51:00
6:51 PM,57.0,44.1,62,29.83,10.0,SSW,12.7,-,N/A,,Mostly Cloudy,210,2011-12-15 23:51:00
7:51 PM,57.0,45.0,64,29.81,10.0,SSW,10.4,-,N/A,,Mostly Cloudy,210,2011-12-16 00:51:00
8:51 PM,57.0,45.0,64,29.80,10.0,SSW,6.9,-,N/A,,Mostly Cloudy,200,2011-12-16 01:51:00
9:51 PM,57.9,45.0,62,29.78,10.0,SW,12.7,19.6,N/A,,Mostly Cloudy,220,2011-12-16 02:51:00
10:51 PM,57.9,46.0,65,29.78,10.0,WSW,11.5,-,N/A,,Mostly Cloudy,240,2011-12-16 03:51:00
11:51 PM,60.1,46.9,62,29.79,10.0,West,15.0,21.9,N/A,,Overcast,260,2011-12-16 04:51:00